Retour au catalogue

ONEWEB-0242

ActifCommunicationsPO
NORAD 48772·PAYLOAD·🇬🇧 United Kingdom

Lancé May 28, 2021 depuis Vostochny Cosmodrome

Loading…

Prochains Passages (prochaines 24 heures)

TLE

FraisSource: CelesTrak SupGP

Époque: Sep 14, 2026, 17:23 UTC

1 48772C 21045F   26257.72447176  .00001633  00000+0  43428-2 0  2572
2 48772  87.8991 241.3413 0002201  83.2707 309.8776 13.15546200    10

Suivez ONEWEB-0242 en temps réel avec AllMySat

Download on the App Store